Regional Weather Roundup
Issued by NWS

Home | Current Version | Previous Version | Text Only | Print | Product List | Glossary On
Versions: 1 2 3 4 5 6 7 8 9 10 11 12 13 14 15 16 17 18 19 20 21 22 23 24 25 26 27 28 29 30 31 32 33 34 35 36 37 38 39 40 41 42 43 44 45 46 47 48 49 50
000
ASUS43 KMPX 291701
RWRMN
WEATHER ROUNDUP FOR MINNESOTA
NATIONAL WEATHER SERVICE TWIN CITIES/CHANHASSEN MN
1100 AM CST THU JAN 29 2015


NOTE: "FAIR" INDICATES FEW OR NO CLOUDS BELOW 12,000 FEET WITH NO
SIGNIFICANT WEATHER AND/OR OBSTRUCTIONS TO VISIBILITY. N/A MEANS
CURRENT SKY AND/OR WEATHER CONDITIONS ARE NOT AVAILABLE.

MNZ060>063-068>070-291800-
   Twin Cities Metro

CITY           SKY/WX    TMP DP  RH WIND       PRES   REMARKS
TWIN CITIES    CLOUDY    31  22  69 NW22      30.21R WCI  18
ST PAUL        CLOUDY    32  23  69 NW17G29   30.21R WCI  21
CRYSTAL        CLOUDY    31  22  69 NW18G30   30.21R WCI  19
BLAINE         CLOUDY    32  25  74 NW18G28   30.21R WCI  20
LAKEVILLE      CLOUDY    28  23  80 NW14G25   30.21R WCI  17
EDEN PRAIRIE   CLOUDY    30  22  72 NW15G25   30.22R WCI  19
SOUTH ST PAUL  CLOUDY    33  24  71 NW15G22   30.20R WCI  22
LAKE ELMO      CLOUDY    32  27  80 NW14G22   30.19R WCI  22
$$
MNZ001>005-007-008-013>017-022>024-027-028-291800-
   Northwest Minnesota

CITY           SKY/WX    TMP DP  RH WIND       PRES   REMARKS
BEMIDJI        CLOUDY    10   6  81 NW17      30.32R WCI  -7
HALLOCK        MOSUNNY    9   1  72 N22G29    30.50R WCI -11
ROSEAU         SUNNY      7   1  78 NW17      30.42R WCI -12
WARROAD        SUNNY      5   0  78 NW17      30.40R WCI -14
THIEF RVR FALL PTSUNNY    9   3  78 NW18      30.44R WCI -10
CROOKSTON      CLOUDY    10   7  85 N23G29    30.49R WCI -10
FOSSTON        LGT SNOW   9   5  85 NW16G22   30.41R WCI  -9
DETROIT LAKES  FLURRIES  14  10  85 N24G31    30.39R WCI  -5
MOORHEAD       MIX PCPN  18  12  79 N25       30.46R WCI  -1
PARK RAPIDS    LGT SNOW  17  11  77 NW17G26   30.30R WCI   1
MAHNOMEN       CLOUDY    10   6  81 NW21G26   30.40R FOG     WCI  -9
$$
MNZ006-009>011-018-025>026-291800-
   North Central Minnesota

CITY           SKY/WX    TMP DP  RH WIND       PRES   REMARKS
BAUDETTE       CLOUDY     4  -2  76 NW18G25   30.35R WCI -16
FLAG ISLAND    CLOUDY     3  -2  78 NW22      30.37R WCI -19
INTL FALLS     LGT SNOW  11   5  77 NW18      30.26R WCI  -7
WASKISH        CLOUDY     9   5  85 NW14G21   30.34R WCI  -8
BIG FORK       LGT SNOW  12   7  79 NW7       30.26R WCI   2
LONGVILLE      LGT SNOW  16  12  86 W16G26    30.27R WCI   0
GRAND RAPIDS   CLOUDY    18  10  73 NW24G32   30.21R WCI   0
CRANE LAKE     LGT SNOW  16  10  79 N13G23    30.22R WCI   2
ORR            LGT SNOW  14   9  79 NW13G21   30.18R WCI   0
COOK           LGT SNOW  16  10  79 W16G22    30.19R WCI   0
WALKER         FLURRIES  14   9  79 NW15G26   30.29R WCI  -1
$$
MNZ012-019>021-037-291800-
   Northeast Minnesota

CITY           SKY/WX    TMP DP  RH WIND       PRES   REMARKS
DULUTH         CLOUDY    23  16  74 NW17G25   30.11R WCI   9
ELY            FLURRIES  18  10  73 NW12G25   30.12R WCI   5
HIBBING        LGT SNOW  17  10  74 NW24      30.18R VSB 1   WCI  -1
EVELETH        LGT SNOW  18  14  86 NW12G22   30.18R VSB 1   WCI   5
DULUTH HARBOR  CLOUDY    28  21  74 NW17      30.17R WCI  16
TWO HARBORS    CLOUDY    28  19  69 NW10G17   30.09R WCI  19
SILVER BAY     CLOUDY    25  18  74 NW7G17    30.08R WCI  17
GRAND MARAIS     N/A     24  13  62 VRB7G20   30.09R WCI  16
G MARAIS ARPRT SNOW      16   7  67 NW13G22   29.99R VSB 1/2 WCI   2
$$
MNZ029>031-032-039>041-046>048-054>057-064-291800-
   West Central Minnesota

CITY           SKY/WX    TMP DP  RH WIND       PRES   REMARKS
FERGUS FALLS   FLURRIES  18  12  79 N23G30    30.44R WCI   0
WHEATON        FLURRIES  21  18  86 NW20G28   30.45R WCI   6
MORRIS         CLOUDY    21  16  79 N25G33    30.38R WCI   4
ALEXANDRIA     CLOUDY    19  13  77 NW18G26   30.33R WCI   4
ELBOW LAKE     CLOUDY    18  14  84 NW20G26   30.39R WCI   2
WADENA         CLOUDY    16  12  86 NW15G26   30.32R WCI   1
GLENWOOD       CLOUDY    21  16  79 NW23G31   30.33R WCI   5
APPLETON       CLOUDY    25  18  74 N24G32    30.40R WCI   9
BENSON         CLOUDY    23  16  74 N18G28    30.38R WCI   9
ORTONVILLE     CLOUDY    25  19  80 NW14G25   30.41R WCI  13
MADISON        CLOUDY    28  21  74 N20G28    30.40R WCI  15
WILLMAR        CLOUDY    25  18  74 NW26G32   30.35R WCI   9
$$
MNZ033>034-036-042>043-049>051-058-059-291800-
   Central Minnesota

CITY           SKY/WX    TMP DP  RH WIND       PRES   REMARKS
ST CLOUD       PTSUNNY   26  18  71 NW24      30.26R WCI  11
SAUK CENTRE    CLOUDY    21  15  78 NW18G29   30.31R WCI   6
PAYNESVILLE    CLOUDY    21  16  82 W17G26    30.31R WCI   6
AITKIN         MIX PCPN  25  16  68 W7G16     30.22R WCI  17
PINE RIVER     FLURRIES  18  12  79 NW10G21   30.30R WCI   6
BRAINERD       CLOUDY    21  15  78 NW17G25   30.26R WCI   7
STAPLES        CLOUDY    18  12  79 NW18G25   30.30R WCI   2
LONG PRAIRIE   CLOUDY    19  14  79 W17G29    30.31R WCI   4
LITTLE FALLS   CLOUDY    23  16  74 NW13G23   30.28R WCI  11
LITCHFIELD     CLOUDY    27  21  80 NW16G31   30.29R WCI  14
BUFFALO        CLOUDY    28  21  75 NW17G24   30.26R WCI  15
MAPLE LAKE     PTSUNNY   28  22  78 NW16G23   30.26R WCI  17
$$
MNZ037-044-045-052-053-291800-
   East Central Minnesota

CITY           SKY/WX    TMP DP  RH WIND       PRES   REMARKS
PRINCETON      CLOUDY    28  19  69 W17G26    30.24R WCI  16
MORA           CLOUDY    27  18  69 NW21G31   30.22R WCI  13
CAMBRIDGE      PTSUNNY   30  19  64 NW14G21   30.20R WCI  20
RUSH CITY      CLOUDY    29  21  71 NW12G21   30.20R WCI  19
MOOSE LAKE     CLOUDY    27  19  74 NW16G23   30.16R WCI  14
HINCKLEY       CLOUDY    28  21  74 NW21      30.19R WCI  15
CLOQUET        CLOUDY    25  18  74 W17G25    30.14R WCI  11
MCGREGOR       CLOUDY    23  18  80 NW15G24   30.21R WCI  10
$$
MNZ071>073-080-081-089-090-097-098-291800-
   Southwest Minnesota

CITY           SKY/WX    TMP DP  RH WIND       PRES   REMARKS
MONTEVIDEO     CLOUDY    25  19  80 N21G29    30.39R WCI  10
GRANITE FALLS  CLOUDY    26  19  76 NW18G29   30.39R WCI  12
CANBY          CLOUDY    27  22  81 NW20      30.41R WCI  14
MARSHALL       CLOUDY    27  19  74 N23       30.39R WCI  12
REDWOOD FALLS  CLOUDY    27  18  69 NW22G36   30.34R WCI  13
OLIVIA         CLOUDY    27  21  80 NW24G30   30.33R WCI  12
PIPESTONE      CLOUDY    28  25  86 N13G24    30.34R WCI  18
WINDOM         CLOUDY    27  21  80 NW29      30.32R WCI  11
WORTHINGTON    CLOUDY    28  21  74 N28G33    30.35R WCI  13
JACKSON        CLOUDY    30  27  86 NW23G30   30.30R WCI  17
TRACY          CLOUDY    28  24  86 N21G28    30.36R WCI  15
SLAYTON        CLOUDY    28  23  83 NW23G30   30.35R WCI  13
$$
MNZ065>067-074>077-082>085-091>093-291800-
   South Central Minnesota

CITY           SKY/WX    TMP DP  RH WIND       PRES   REMARKS
MANKATO        CLOUDY    30  21  69 NW20      30.26R WCI  18
NEW ULM        CLOUDY    28  21  74 NW24G36   30.30R WCI  14
ST JAMES       CLOUDY    30  25  80 NW23G30   30.31R WCI  17
FAIRMONT       CLOUDY    30  21  69 NW21G32   30.27R WCI  17
GLENCOE        CLOUDY    29  24  82 NW20G28   30.27R WCI  16
FARIBAULT      CLOUDY    30  25  80 NW17G25   30.22R WCI  18
OWATONNA       CLOUDY    30  25  80 NW22      30.21R WCI  17
WASECA         CLOUDY    32  27  80 NW26G33   30.24R WCI  18
ALBERT LEA     CLOUDY    30  27  86 NW18G29   30.21R WCI  18
$$
MNZ078>079-086>088-094>096-291800-
   Southeast Minnesota

CITY           SKY/WX    TMP DP  RH WIND       PRES   REMARKS
ROCHESTER      CLOUDY    30  26  85 NW29G39   30.14R WCI  15
RED WING       CLOUDY    34  25  69 NW12G18   30.17R WCI  25
STANTON        CLOUDY    32  25  74 NW23G29   30.19R WCI  19
DODGE CENTER   CLOUDY    30  27  86 NW22G28   30.16R WCI  17
WINONA         CLOUDY    34  27  75 N18G30    30.12R WCI  23
AUSTIN         CLOUDY    28  25  86 NW22G35   30.18R WCI  15
PRESTON        CLOUDY    30  27  91 NW23G31   30.12R FOG     WCI  16
$$
ABBREVIATIONS USED IN REMARKS
   TC - TEMPERATURES IN CELSIUS
  WCI - WIND CHILL INDEX
   HX - HEAT INDEX
  VSB - VISIBILITY
$$


USA.gov is the U.S. government's official web portal to all federal, state and local government web resources and services.